Regional Weather Roundup
Issued by NWS Mt. Holly, NJ

Home | Current Version | Previous Version | Text Only | Print | Product List | Glossary On
Versions: 1 2 3 4 5 6 7 8 9 10 11 12 13 14 15 16 17 18 19 20 21 22 23 24 25 26 27 28 29 30 31 32 33 34 35 36 37 38 39 40 41 42 43 44 45 46 47 48 49 50
865
ASUS41 KPHI 022012
RWRPHI

REGIONAL WEATHER ROUNDUP
NATIONAL WEATHER SERVICE MOUNT HOLLY NJ
400 PM EDT MON MAY 02 2016

NOTE:  "FAIR" INDICATES FEW OR NO CLOUDS BELOW 12,000 FEET WITH NO
SIGNIFICANT WEATHER AND/OR OBSTRUCTIONS TO VISIBILITY.

 * = STATION DOES NOT REPORT PRECIPITATION (E.G. RAIN, SNOW, ETC.)
        OR FOG.

NJZ015>026-022100-
SOUTHERN NEW JERSEY

CITY           SKY/WX    TMP DP  RH WIND       PRES   REMARKS
POMONA         CLOUDY    65  58  78 W5        29.90F
WILDWOOD*      SUNNY     64  57  77 NW5       29.91F
MILLVILLE      CLOUDY    64  57  78 W3        29.90F
WRIGHTSTOWN    CLOUDY    59  55  86 W6        29.88F
MOUNT HOLLY    CLOUDY    58  54  86 VRB3      29.91F
TRENTON        CLOUDY    59  53  80 S6        29.89F

$$
NJZ001>014-022100-
NORTHERN NEW JERSEY

CITY           SKY/WX    TMP DP  RH WIND       PRES   REMARKS
SUSSEX         CLOUDY    60  52  74 VRB5      29.88F
ANDOVER*         N/A     57  51  80 VRB6      29.89F
MORRISTOWN     CLOUDY    55  54  94 SW7       29.90F FOG
NEWARK         CLOUDY    59  50  72 VRB5      29.90F
TETERBORO      CLOUDY    57  49  74 S6        29.88F HAZE
CALDWELL       CLOUDY    55  50  83 CALM      29.90F HAZE
SOMERVILLE     CLOUDY    56  51  84 CALM      29.88F
ALLAIRE*       CLOUDY    60  54  80 W5        29.91F
TOMS RIVER*    CLOUDY    59  54  82 CALM      29.91F

$$
PAZ043-044-047-054-055-060>062-066>071-022100-
EASTERN PENNSYLVANIA

CITY           SKY/WX    TMP DP  RH WIND       PRES   REMARKS
PHILADELPHIA   CLOUDY    61  54  77 CALM      29.91F
NORTH PHILA    CLOUDY    61  53  75 VRB3      29.92F
BLUE BELL*     CLOUDY    57  54  88 CALM      29.89F
DOYLESTOWN     CLOUDY    57  52  83 VRB5      29.89F
QUAKERTOWN*    CLOUDY    57  54  88 CALM      29.91F
PERKASIE*      CLOUDY    57  55  94 W3        29.91F
POTTSTOWN      CLOUDY    59  54  83 CALM      29.91F HAZE
LANCASTER      MOSUNNY   65  59  81 SE5       29.87F
COATESVILLE    SUNNY     63  63 100 SW5       29.90F
READING        CLOUDY    61  53  75 VRB3      29.89F
ALLENTOWN      CLOUDY    59  52  77 CALM      29.90F
MOUNT POCONO   CLOUDY    55  51  86 W13G18    29.89S
HAZLETON       CLOUDY    59  54  82 NW8       29.92S
LEHIGHTON      CLOUDY    59  52  77 CALM      29.90F
WILKES BARRE   CLOUDY    58  52  80 W6        29.90R

$$
DEZALL-MDZ008-012-015-019-020-022100-
DELAWARE AND EASTERN MARYLAND

CITY           SKY/WX    TMP DP  RH WIND       PRES   REMARKS
WILMINGTON     CLOUDY    61  55  81 SE3       29.91F
DOVER          SUNNY     65  64  94 NE7       29.88F
GEORGETOWN     MOSUNNY   76  65  68 VRB7      29.89S
EASTON         SUNNY    N/A N/A N/A SW7       29.92F
ABERDEEN       PTSUNNY   64  59  82 S6        29.89F
PATUXENT       MOSUNNY   69  62  78 SE12      29.87F
OCEAN CITY     SUNNY     67  62  84 S7        29.89F
WALLOPS ISLAND FAIR      76  67  73 S10       29.89F
SALISBURY      SUNNY     78  66  66 W13       29.88F

$$
PAZ001-021-NYZ056-072-MDZ011-DCZ001-022100-
OTHER NEARBY LOCATIONS

CITY           SKY/WX    TMP DP  RH WIND       PRES   REMARKS
HARRISBURG     MOSUNNY   65  57  75 CALM      29.86F HAZE
STATE COLLEGE  MOSUNNY   72  50  46 NW9G20    29.88R
WILLIAMSPORT   PTSUNNY   63  54  72 SE5       29.87F
BINGHAMTON     PTSUNNY   49  46  90 NW8       29.90S
NEW YORK CITY  CLOUDY    57  49  74 W3        29.92F
BALTIMORE      MOSUNNY   69  60  73 E9        29.87F
WASHINGTON DC  NOT AVBL

$$




USA.gov is the U.S. government's official web portal to all federal, state and local government web resources and services.